Vicksburg, LA

8:40 AM CDT on October 17, 2017 (GMT -0500)
Vicksburg Tallulah Regional

Weather History for KTVR - February, 2013

Change the Weather History Date:

Thursday, February 14, 2013

  Actual Average Record
Temperature  
Mean Temperature 48 °F 50 °F  
Max Temperature 61 °F 60 °F 81 °F (1962)
Min Temperature 35 °F 39 °F 8 °F (1960)
Degree Days  
Heating Degree Days 17 16  
Month to date heating degree days 178 239  
Since 1 July heating degree days 1565 1783  
Cooling Degree Days 0 0  
Month to date cooling degree days 0 0  
Year to date cooling degree days 18 3  
Moisture  
Dew Point 38 °F    
Average Humidity 74    
Maximum Humidity 100    
Minimum Humidity 47    
Precipitation  
Precipitation 0.00 in 0.20 in 0.85 in (1958)
Month to date precipitation 5.73 2.60  
Year to date precipitation 19.01 7.67  
Sea Level Pressure  
Sea Level Pressure 30.12 in    
Wind  
Wind Speed 0 mph (South)    
Max Wind Speed 6 mph    
Max Gust Speed 9 mph    
Visibility 6 miles    
Events Fog    
T = Trace of Precipitation, MM = Missing Value Source: NWS Daily Summary

Daily Weather History Graph

Daily Weather History Graph

Search for Another Location

Airport or City:

Trip Planner

Search our weather history database for the weather conditions in past years. The results will help you decide how hot, cold, wet, or windy it might be!

Date:

Astronomy

Feb. 14, 2013 Rise Set
Actual Time 6:47 AM CST 5:49 PM CST
Civil Twilight 6:22 AM CST 6:14 PM CST
Nautical Twilight 5:53 AM CST 6:43 PM CST
Astronomical Twilight 5:24 AM CST 7:12 PM CST
Moon 9:08 AM CST (2/14) 10:31 PM CST (2/14)
Length of Visible Light 11h 52m
Length of Day
11h 02m
Waxing Crescent, 22% of the Moon is Illuminated
Feb 14
Waxing Crescent
Feb 17
First Quarter
Feb 25
Full
Mar 4
Last Quarter
Mar 11
New

Hourly Weather History & Observations

Time (CST) Temp. Windchill Dew Point Humidity Pressure Visibility Wind Dir Wind Speed Gust Speed Precip Events Conditions
12:26 AM 39.2 °F - 37.4 °F 93% 30.09 in 2.5 mi Calm Calm - N/A   Clear
12:33 AM 39.2 °F - 37.4 °F 93% 30.08 in 7.0 mi Calm Calm - N/A   Clear
12:53 AM 39.0 °F - 37.0 °F 93% 30.11 in 9.0 mi Calm Calm - N/A   Clear
1:27 AM 39.2 °F - 37.4 °F 93% 30.09 in 1.8 mi Calm Calm - N/A   Clear
1:33 AM 39.2 °F - 37.4 °F 93% 30.09 in 0.8 mi Calm Calm - N/A   Mist
1:41 AM 37.4 °F - 37.4 °F 100% 30.09 in 1.2 mi Calm Calm - N/A   Partly Cloudy
1:49 AM 37.4 °F - 37.4 °F 100% 30.09 in 0.8 mi Calm Calm - N/A   Mist
1:53 AM 37.9 °F - 36.0 °F 93% 30.11 in 0.5 mi Calm Calm - N/A Fog Fog
2:49 AM 39.2 °F - 37.4 °F 93% 30.09 in 1.2 mi Calm Calm - N/A   Partly Cloudy
2:51 AM 39.2 °F - 37.4 °F 93% 30.09 in 3.0 mi Calm Calm - N/A   Partly Cloudy
2:53 AM 39.0 °F - 37.9 °F 96% 30.11 in 7.0 mi Calm Calm - N/A   Partly Cloudy
3:13 AM 35.6 °F - 35.6 °F 100% 30.09 in 2.0 mi Calm Calm - N/A   Clear
3:32 AM 35.6 °F - 35.6 °F 100% 30.10 in 6.0 mi Calm Calm - N/A   Clear
3:53 AM 36.0 °F - 35.1 °F 97% 30.13 in 3.0 mi Calm Calm - N/A   Clear
3:55 AM 35.6 °F 32.8 °F 33.8 °F 93% 30.10 in 1.8 mi South 3.5 mph - N/A   Clear
4:05 AM 35.6 °F 32.8 °F 33.8 °F 93% 30.10 in 3.0 mi South 3.5 mph - N/A   Clear
4:53 AM 37.0 °F 33.3 °F 35.1 °F 93% 30.14 in 7.0 mi South 4.6 mph - N/A   Clear
5:53 AM 37.0 °F - 35.1 °F 93% 30.15 in 7.0 mi Calm Calm - N/A   Clear
6:28 AM 35.6 °F - 33.8 °F 93% 30.12 in 1.8 mi Calm Calm - N/A   Clear
6:36 AM 35.6 °F - 33.8 °F 93% 30.12 in 0.2 mi Calm Calm - N/A Fog Fog
6:53 AM 35.1 °F - 34.0 °F 96% 30.15 in 0.2 mi Calm Calm - N/A Fog Fog
7:03 AM 35.6 °F - 33.8 °F 93% 30.13 in 0.2 mi Calm Calm - N/A Fog Fog
7:49 AM 39.2 °F - 37.4 °F 93% 30.13 in 1.2 mi Calm Calm - N/A   Scattered Clouds
7:53 AM 39.0 °F - 39.0 °F 100% 30.16 in 3.0 mi Calm Calm - N/A   Partly Cloudy
8:53 AM 44.1 °F - 42.1 °F 93% 30.18 in 10.0 mi Calm Calm - N/A   Clear
9:53 AM 48.0 °F - 42.1 °F 80% 30.18 in 10.0 mi Calm Calm - N/A   Clear
10:53 AM 51.1 °F - 39.0 °F 63% 30.18 in 10.0 mi Calm Calm - N/A   Clear
11:53 AM 54.0 °F - 39.0 °F 57% 30.17 in 10.0 mi Calm Calm - N/A   Clear
12:53 PM 55.9 °F - 39.9 °F 55% 30.15 in 10.0 mi Calm Calm - N/A   Clear
1:53 PM 57.9 °F - 37.0 °F 46% 30.12 in 10.0 mi Calm Calm - N/A   Clear
2:53 PM 57.9 °F - 37.9 °F 47% 30.11 in 10.0 mi Calm Calm - N/A   Clear
3:53 PM 57.9 °F - 37.0 °F 46% 30.10 in 10.0 mi Calm Calm - N/A   Clear
4:53 PM 57.9 °F - 37.9 °F 47% 30.10 in 10.0 mi Calm Calm - N/A   Clear
5:53 PM 55.0 °F - 42.1 °F 62% 30.11 in 10.0 mi Calm Calm - N/A   Clear
6:53 PM 51.1 °F - 44.1 °F 77% 30.12 in 10.0 mi Calm Calm - N/A   Clear
7:53 PM 46.0 °F - 43.0 °F 89% 30.12 in 10.0 mi Calm Calm - N/A   Clear
8:53 PM 46.0 °F 44.8 °F 42.1 °F 86% 30.13 in 10.0 mi South 3.5 mph - N/A   Clear
9:53 PM 45.0 °F - 42.1 °F 90% 30.14 in 10.0 mi Calm Calm - N/A   Clear
10:53 PM 44.1 °F - 41.0 °F 89% 30.14 in 10.0 mi Calm Calm - N/A   Clear
11:53 PM 41.0 °F - 39.0 °F 93% 30.14 in 10.0 mi Calm Calm - N/A   Clear